Location: Gandikunta
(16.3784°N, 80.8378°E)
Time: 00:30:42
(UTC+00:00)

Cosmos 1741 Rocket - Pass Details

Date: 19 May 2025
Orbit: 757 x 779 km, 74.0° (Epoch: 18 June)

Event Time Altitude Azimuth Distance (km) Brightness Sun altitude
Rises 23:22:23 0° 186° (S) 3,205 6.9 -10.2°
Reaches altitude 10° 23:24:45 10° 183° (S) 2,283 6.2 -9.7°
Maximum altitude 23:29:52 64° 102° (ESE) 842 4.5 -8.6°
Drops below altitude 10° 23:35:02 10° 21° (NNE) 2,300 7.2 -7.5°
Sets 23:37:25 0° 19° (NNE) 3,231 7.9 -6.9°
